Flag for Bosnia-Herzegovina Weather past 2 weeks in Tuzla, Bosnia-Herzegovina

32 °F

Ice fog.

Feels Like: 32 °F
Forecast: 31 / 52 °F
Wind: 1 mph from North

Location: Sarajevo / Butmir

Current Time: Dec 2, 2015 at 1:46:38 AM

Latest Report: Dec 2, 2015 at 1:00 AM

Visibility: 1 mi

Pressure: 30.33 "Hg

Humidity: 100%

Dew point: 32 °F

Location of TuzlaLocation

Historic Weather in Tuzla — Graph


Tuzla temperature yesterday

Maximum temperature yesterday: 52 °F (at 2:00 PM)
Minimum temperature yesterday: 28 °F (at 5:00 AM)
Average temperature yesterday: 37 °F

Past Weeks' High & Low Weather Summary

High64 °F (Nov 20, 1:00 PM)100% (Nov 17, 1:00 AM)30.33 "Hg (Nov 17, 1:00 AM)
Low28 °F (Nov 18, 7:00 AM)39% (Nov 17, 1:30 PM)29.24 "Hg (Nov 21, 2:30 PM)
Average37 °F90%29.98 "Hg
* Reported Midnight between Nov 16 and Nov 17 — Midnight between Dec 1 and Dec 2, Tuzla, Weather by CustomWeather, © 2015

Note: Actual official high and low records may vary slightly from our data, if they occured in-between our weather recording intervals... More about our weather records


Tuzla weather history for previous 24 hours

Time TempWeatherWind HumidityBarometerVisibility
12:00 AM
Wed, Dec 2
32 °FIce fog.1 mph100%30.33 "Hg1 mi
11:00 PM
Tue, Dec 1
34 °FFog.2 mph100%30.33 "Hg1 mi
10:00 PM36 °FFog.2 mph93%30.33 "Hg2 mi
9:30 PM36 °FFog.1 mph93%30.33 "Hg2 mi
9:00 PM34 °FFog.2 mph93%30.33 "Hg3 mi
8:30 PM34 °FClear.2 mph100%30.30 "Hg4 mi
8:00 PM36 °FClear.2 mph93%30.30 "Hg4 mi
7:30 PM34 °FClear.1 mph100%30.30 "Hg4 mi
7:00 PM36 °FClear.1 mph93%30.30 "Hg4 mi
6:30 PM36 °FClear.2 mph93%30.30 "Hg5 mi
6:00 PM37 °FClear.1 mph93%30.27 "Hg5 mi
5:30 PM37 °FClear.3 mph93%30.27 "Hg5 mi
5:00 PM39 °FClear.3 mph87%30.27 "HgN/A
4:30 PM43 °FClear.2 mph81%30.27 "HgN/A
4:00 PM45 °FClear.2 mph81%30.24 "HgN/A
3:30 PM46 °FClear.3 mph82%30.24 "Hg4 mi
3:00 PM50 °FClear.2 mph76%30.24 "Hg4 mi
2:30 PM52 °FClear.1 mph67%30.24 "Hg4 mi
2:00 PM52 °FClear.1 mph67%30.24 "Hg4 mi
1:30 PM50 °FClear.1 mph67%30.24 "Hg4 mi
1:00 PM48 °FFog.1 mph66%30.24 "Hg3 mi
12:30 PM48 °FFog.1 mph71%30.27 "Hg3 mi
12:00 PM45 °FFog.1 mph76%30.27 "Hg2 mi
11:30 AM45 °FFog.2 mph76%30.27 "Hg2 mi
11:00 AM41 °FFog.1 mph81%30.27 "Hg2 mi
10:30 AM39 °FFog.1 mph87%30.27 "Hg2 mi
10:00 AM36 °FFog.2 mph93%30.27 "Hg2 mi
9:00 AM34 °FFog.1 mph100%30.27 "Hg1 mi
8:30 AM32 °FIce fog.2 mph100%30.27 "Hg1 mi
8:00 AM28 °FIce fog.1 mph100%30.24 "Hg1 mi
7:30 AM28 °FChilly.1 mph100%30.24 "Hg2 mi
7:00 AM28 °FChilly.1 mph100%30.24 "Hg2 mi
6:30 AM28 °FIce fog.2 mph100%30.21 "Hg1 mi
6:00 AM28 °FIce fog.2 mph100%30.21 "Hg1 mi
5:30 AM28 °FIce fog.1 mph93%30.21 "Hg1 mi
5:00 AM28 °FIce fog.3 mph100%30.21 "Hg1 mi
4:00 AM30 °FIce fog.2 mph93%30.21 "Hg1 mi
3:00 AM30 °FIce fog.1 mph100%30.21 "Hg1 mi
2:00 AM32 °FIce fog.2 mph93%30.21 "Hg1 mi
1:00 AM30 °FIce fog.1 mph100%30.24 "Hg1 mi
Weather by CustomWeather, © 2015

See weather overviewHow to use our weather pages